Theta_e
299 299 299 299 298 298 298 298 296 296 297 297 297 296 297 296 296 297 297 297 297 297 297 298 298 298 298 298 298 298 297 297 297 296 296 296 297 297 298 298 298 298 298 298 298 298 298 298 297 297 297 297 297 297 298 299 300 299 299 299 299 300 300 300 300 301 301 301 300
299 299 299 297 297 297 298 298 297 297 297 297 297 297 297 297 297 297 297 297 297 297 297 298 298 298 298 298 297 297 297 297 296 296 296 296 297 298 298 298 298 298 298 298 298 297 297 297 297 296 296 296 296 296 297 298 299 299 299 299 299 299 299 299 299 300 300 300 300
300 300 299 298 298 298 298 298 298 298 297 297 297 297 297 297 297 297 297 297 297 297 297 297 298 298 298 298 297 297 297 297 296 296 296 296 296 297 297 297 297 297 297 297 297 297 297 297 296 296 295 295 295 295 296 296 297 297 297 297 297 298 298 298 299 299 300 299 300
301 300 300 299 298 298 298 297 297 297 297 297 297 297 297 297 297 297 297 297 297 297 297 297 298 299 298 298 297 297 296 296 296 296 296 296 296 296 296 296 296 296 296 296 297 297 297 297 296 295 295 295 295 295 295 296 296 296 296 296 296 297 297 297 298 298 299 299 299
301 300 300 299 298 298 298 297 296 296 296 296 296 296 297 297 297 297 297 296 296 296 297 297 298 298 298 297 297 296 296 296 294 295 295 295 295 296 296 296 296 295 296 296 296 296 296 296 295 295 295 295 295 295 295 296 296 295 295 296 296 296 296 297 297 298 298 298 298
300 300 300 299 299 298 297 297 296 296 296 296 296 296 296 296 296 296 295 295 295 296 296 296 296 296 296 296 296 296 296 296 295 295 295 295 295 295 295 295 295 295 296 296 296 296 296 296 295 294 295 295 295 295 295 296 295 295 295 295 295 296 296 296 296 297 297 298 298
298 298 298 298 297 297 296 296 296 296 296 296 295 295 295 295 295 295 295 295 295 295 295 295 295 295 295 296 295 295 295 295 295 295 295 294 294 294 294 294 295 295 295 295 295 295 295 296 294 294 294 294 294 295 296 296 295 295 295 295 295 295 296 296 297 297 297 297 298
296 296 296 296 296 295 295 295 295 295 295 295 295 295 295 295 295 295 295 295 295 295 295 295 295 295 295 295 295 295 295 294 294 294 294 294 293 293 293 294 294 294 294 294 294 294 294 295 294 294 294 294 293 294 295 296 296 295 295 295 295 295 296 297 299 298 298 298 298
295 295 295 295 295 294 294 294 295 294 294 294 294 294 295 295 295 294 294 294 294 294 295 295 295 295 295 294 295 294 294 294 294 293 293 293 293 293 293 293 293 293 293 294 294 294 294 293 293 293 293 293 293 294 295 296 296 296 295 295 294 295 295 296 297 297 297 298 298
294 294 294 294 294 294 294 294 294 294 294 294 294 294 294 293 293 294 294 294 294 294 295 295 295 295 294 294 294 294 294 294 293 293 293 292 292 292 292 292 292 292 292 293 293 293 293 292 292 292 293 293 293 294 295 295 295 295 295 294 294 295 295 296 296 296 296 297 298
294 294 294 293 294 293 293 293 293 293 293 293 293 294 294 293 294 294 294 294 294 294 294 295 294 294 294 294 293 293 293 293 292 292 292 291 291 291 291 291 291 291 291 291 292 292 292 291 292 292 292 292 293 293 294 294 294 294 294 294 294 294 295 295 295 295 295 296 296
293 293 293 293 293 293 293 293 293 293 293 293 293 293 294 294 294 294 294 294 294 294 294 294 294 294 293 293 292 292 292 292 291 291 291 290 290 290 290 290 290 291 291 291 291 291 291 291 291 291 291 292 292 292 293 293 293 293 293 293 294 294 294 294 294 295 295 295 295
293 293 293 293 293 293 292 292 292 292 293 293 293 293 294 294 294 294 294 294 293 293 293 294 294 293 292 292 292 291 291 291 291 290 290 290 290 290 290 290 290 290 291 291 291 291 291 291 291 291 291 291 291 292 292 292 292 292 292 292 293 293 293 293 294 294 294 295 294
293 293 293 293 293 292 292 292 292 292 293 293 293 293 294 294 294 294 294 294 293 293 293 293 293 292 292 292 291 291 291 290 290 290 290 289 290 290 290 290 290 290 290 291 291 291 291 291 290 290 290 291 291 291 292 292 292 292 292 291 292 292 292 292 293 293 293 293 294
293 293 293 292 292 292 292 292 292 292 293 293 293 293 294 294 294 294 294 294 294 293 293 293 292 292 292 292 291 291 290 290 290 289 289 289 289 290 290 290 290 290 290 291 291 291 291 291 290 290 290 290 290 291 291 291 291 291 291 291 291 291 291 292 292 292 292 292 292
293 292 292 292 292 292 292 292 292 293 293 293 293 293 294 294 294 294 294 294 294 293 293 293 292 292 292 291 291 291 290 290 289 289 289 289 289 289 289 289 290 290 290 290 290 291 291 291 291 290 290 290 290 290 290 291 291 291 291 291 291 291 291 291 291 291 291 291 291
292 292 292 292 292 292 292 292 293 293 293 293 293 294 294 294 294 294 294 294 294 293 293 293 292 292 291 291 291 290 290 290 289 289 289 289 289 289 289 289 289 289 290 290 290 290 290 290 291 291 290 290 290 290 290 290 290 290 289 289 289 289 289 289 290 290 290 290 290
292 292 292 293 292 292 293 293 293 293 293 293 293 294 294 294 294 294 293 294 294 293 293 293 292 292 291 291 291 290 290 289 289 289 289 289 289 289 289 289 289 289 290 290 290 290 290 290 290 290 290 290 290 289 289 289 288 288 288 288 288 288 288 288 288 289 289 289 289
292 293 293 293 293 293 293 292 293 293 293 293 294 294 294 294 294 294 294 294 294 293 293 292 292 292 291 291 291 290 289 289 289 289 289 289 289 289 289 289 289 289 289 290 290 290 290 290 290 290 290 289 289 288 288 287 287 287 287 287 287 287 287 287 287 287 288 288 288
292 293 293 293 293 293 293 293 293 293 293 293 294 294 294 294 294 294 294 294 294 293 293 292 292 291 291 291 290 290 290 290 290 289 289 289 289 289 289 289 289 289 289 289 290 290 290 290 289 289 288 287 287 286 286 286 286 286 286 286 286 286 286 286 286 286 287 287 287
293 293 293 293 293 293 293 293 293 293 293 294 294 294 294 294 294 294 294 294 294 293 293 292 291 291 291 290 290 290 290 289 290 290 289 289 289 289 289 289 289 289 289 289 289 289 289 288 288 287 286 286 286 285 285 285 285 285 285 285 285 285 286 286 286 286 286 286 286
293 293 293 293 293 293 293 293 293 294 294 294 294 294 294 294 294 294 294 294 293 293 292 292 291 291 290 290 290 290 290 289 289 289 289 289 289 289 289 289 289 289 289 289 289 289 288 287 287 286 285 285 285 285 284 284 284 284 284 285 285 285 285 285 286 286 286 286 286
293 293 293 293 293 293 293 293 293 294 294 294 294 294 294 294 294 294 294 294 293 293 292 292 291 291 290 290 290 290 289 289 289 289 289 289 289 289 289 289 289 289 289 289 288 288 287 286 286 285 285 284 284 284 284 284 284 284 284 284 284 284 285 285 286 286 286 286 286
293 293 294 294 293 293 293 293 293 293 293 293 294 294 294 295 295 294 294 294 293 293 293 292 292 291 290 290 290 290 289 289 289 289 289 289 289 289 289 289 289 289 289 288 288 287 286 285 284 284 284 284 283 284 283 283 283 283 283 283 283 284 284 285 285 285 286 286 286
294 293 293 293 293 293 293 293 293 293 293 293 293 294 294 294 295 294 294 294 294 293 293 292 292 291 291 290 290 289 289 289 289 288 288 289 289 289 289 289 289 289 288 287 287 286 285 284 284 283 283 283 283 283 283 283 283 283 283 283 283 283 283 284 284 285 285 285 286
294 293 293 293 293 293 293 293 293 293 293 293 293 293 293 294 294 294 294 293 293 293 292 292 291 291 290 290 290 289 289 289 288 288 288 288 288 288 288 288 288 288 287 287 286 285 284 284 284 283 283 283 283 282 282 283 283 283 283 283 283 283 283 283 283 284 284 285 285
294 293 293 293 293 293 293 293 293 293 293 293 293 293 293 293 293 293 293 293 292 292 292 291 291 290 289 290 290 289 289 288 288 288 288 288 288 288 288 288 288 288 287 286 285 284 284 284 284 283 283 283 283 282 282 282 283 283 283 283 283 283 283 283 283 283 283 284 285
293 294 293 293 293 293 293 293 293 293 293 293 293 293 293 293 292 292 292 292 291 291 291 290 290 289 289 288 288 289 289 288 288 288 288 288 288 287 287 287 287 287 286 286 285 284 284 284 284 284 283 283 283 282 282 282 282 283 283 283 283 283 283 283 283 284 284 284 284
294 294 294 293 293 293 293 293 293 293 293 293 293 293 293 292 292 292 291 291 290 290 289 289 289 288 288 287 288 288 288 288 288 288 288 288 288 288 288 287 287 286 285 285 284 284 284 284 284 284 284 283 283 283 282 282 282 282 283 283 283 283 283 283 283 283 283 284 284
294 294 294 293 293 293 293 293 293 293 293 293 293 293 292 292 291 291 290 290 289 288 288 288 287 287 287 287 287 287 287 287 287 287 288 288 288 287 287 286 286 285 285 284 284 284 284 284 284 284 283 283 283 282 282 282 282 282 283 283 283 283 283 283 283 283 283 283 284
294 294 294 293 293 293 293 293 293 293 293 293 292 292 291 291 290 290 289 289 288 288 287 287 287 287 287 286 286 286 286 286 287 287 287 287 287 287 286 286 285 285 284 284 284 284 284 284 284 283 283 283 283 283 283 282 282 282 282 283 283 283 283 283 283 283 283 283 284
294 294 294 293 293 293 293 293 293 293 293 292 292 291 291 290 290 289 289 288 287 287 287 286 286 286 286 286 286 286 286 286 286 286 287 287 286 286 285 284 284 284 284 284 284 284 284 284 284 284 283 283 283 283 283 283 283 283 283 283 283 283 283 283 283 283 284 284 284
294 293 293 293 293 293 292 293 292 292 292 292 291 291 290 290 289 288 288 287 287 287 286 286 286 285 285 285 285 285 285 286 286 286 286 286 285 284 284 283 283 283 283 284 283 284 284 284 284 284 284 283 283 283 283 283 283 283 283 283 283 284 284 284 284 284 284 284 284
294 293 293 292 292 292 292 292 292 292 291 291 290 290 289 289 288 287 287 287 286 286 286 286 285 285 285 285 285 285 285 286 286 286 286 285 284 283 283 283 283 283 284 283 283 284 284 284 284 284 284 283 283 283 283 283 283 283 283 283 283 284 284 284 284 284 284 284 284
293 293 292 292 291 291 291 291 291 291 291 290 289 289 288 288 287 287 286 286 286 285 285 285 285 285 285 285 285 286 286 286 286 286 285 284 283 283 282 282 283 283 284 284 284 284 284 284 284 284 284 283 283 283 283 283 283 283 283 283 283 284 284 284 284 284 285 285 285
293 292 292 291 291 291 291 291 291 290 290 289 288 288 288 287 286 286 286 285 285 285 285 285 285 285 285 285 286 286 286 286 286 285 285 284 283 283 282 282 283 284 284 284 284 284 284 284 284 284 284 283 283 283 283 283 283 283 284 284 284 284 284 284 285 285 285 285 285
292 292 292 291 290 290 290 290 290 289 289 288 287 287 287 286 286 286 285 285 284 284 284 284 284 284 284 285 285 285 285 285 285 284 284 283 283 282 282 282 283 284 284 284 284 284 284 284 284 284 284 283 283 283 283 283 283 284 284 284 284 284 285 285 285 285 285 285 285
292 292 291 290 290 290 290 290 289 288 288 287 286 286 286 285 285 285 285 284 284 284 283 284 284 284 284 285 285 285 285 285 284 283 283 283 283 282 282 282 283 284 284 284 284 284 284 284 284 284 284 283 283 283 283 283 283 284 284 284 284 285 285 285 285 286 286 286 285
291 291 290 290 290 290 289 289 288 288 287 286 286 285 285 285 284 284 284 284 284 283 283 283 284 284 284 285 284 284 284 284 283 283 283 283 283 283 282 282 283 284 284 284 284 284 284 284 284 284 284 283 283 283 284 284 284 284 284 284 284 285 285 286 286 286 286 286 286
291 290 290 290 290 289 288 288 287 287 286 285 285 285 284 284 284 284 284 284 284 284 284 284 284 284 284 284 283 283 283 283 283 283 283 283 283 283 283 283 283 284 284 284 284 284 284 284 284 285 284 284 284 284 284 284 284 284 284 284 284 285 285 286 286 286 286 287 287
290 290 290 289 289 288 288 287 286 286 285 285 284 284 284 284 284 284 284 284 284 284 284 284 284 284 284 283 282 282 282 282 283 283 283 283 283 283 283 283 284 284 284 285 284 284 284 285 285 285 285 284 284 284 284 284 284 284 284 284 285 285 285 285 286 286 286 287 287
Wind_Speed
6 5 4 4 3 3 3 2 2 2 2 1 1 1 1 2 2 3 3 3 3 4 4 5 5 6 7 8 10 10 11 11 12 12 13 13 13 13 13 13 13 13 13 14 14 13 13 13 12 11 10 10 11 12 12 11 12 13 14 15 14 15 16 18 18 19 20 21 18
7 6 5 4 4 3 3 3 3 3 3 1 0 1 2 2 3 3 4 4 4 4 5 5 6 7 8 10 10 11 11 12 13 13 13 14 14 14 13 13 13 13 14 14 14 13 12 13 12 11 10 9 10 11 12 11 12 14 16 18 15 15 15 16 17 18 20 20 19
7 7 6 6 5 5 4 3 3 3 2 1 1 1 2 2 3 3 4 4 5 5 6 6 6 8 9 10 10 11 11 12 13 13 13 13 14 14 14 13 14 14 14 14 14 13 13 13 12 11 10 9 11 11 12 12 13 14 15 17 15 13 13 13 15 16 16 15 17
7 7 6 6 6 5 3 2 1 1 1 1 1 2 2 3 3 4 4 5 6 6 6 6 7 7 8 9 11 12 12 12 13 14 14 14 14 15 15 15 15 15 15 15 15 15 15 15 12 10 10 12 13 13 12 11 13 13 13 13 13 13 13 12 13 13 13 13 15
7 6 5 4 4 3 3 2 1 2 2 2 2 2 3 3 3 4 5 5 6 6 7 8 8 7 8 9 12 13 13 14 13 13 13 13 14 14 15 15 16 15 15 15 15 15 16 15 12 11 11 12 11 11 12 13 14 14 12 11 11 12 12 12 12 12 12 12 13
6 6 5 4 4 3 2 2 2 2 2 2 3 4 4 4 4 5 6 6 7 8 9 9 8 8 9 11 12 13 13 13 12 12 13 14 14 14 15 16 16 16 15 15 16 16 16 15 12 11 11 11 11 12 14 15 14 14 13 12 11 11 12 13 12 12 13 14 16
7 6 6 5 4 3 2 2 2 1 1 2 4 6 6 6 7 8 8 8 8 8 8 8 8 9 10 11 11 12 12 12 12 13 14 14 14 15 15 16 16 16 16 16 16 16 15 14 12 11 10 10 11 12 14 15 14 14 13 13 11 11 12 14 12 12 14 17 20
6 6 5 5 4 3 3 2 1 2 3 3 5 6 8 8 9 9 10 9 9 8 8 7 9 10 11 11 12 12 12 13 13 13 14 14 15 16 16 16 16 17 17 17 16 16 15 13 11 11 11 10 10 11 13 15 15 15 15 15 13 12 12 12 12 13 15 19 21
5 5 4 4 3 3 2 1 2 3 4 5 6 7 8 8 9 9 9 9 8 8 8 8 10 12 12 13 13 12 12 12 13 14 14 14 15 16 16 16 16 16 16 16 16 16 16 13 11 11 11 11 11 12 13 15 16 16 16 15 14 14 14 13 14 15 17 19 20
4 4 3 3 2 1 1 2 3 4 6 7 7 8 8 8 9 9 9 8 8 8 9 10 11 12 12 13 13 13 12 12 13 14 14 15 15 16 16 15 16 16 16 15 15 15 15 13 13 13 13 13 14 15 16 16 17 17 17 14 14 16 17 17 17 18 19 19 20
4 3 2 1 0 1 2 3 4 5 6 7 7 8 8 9 9 9 9 8 9 10 11 11 11 12 12 12 12 12 12 12 12 13 14 15 16 16 16 16 16 16 16 15 14 14 13 12 13 15 16 15 16 16 17 18 18 19 18 16 17 18 19 20 19 19 19 19 20
3 2 1 1 2 3 3 4 5 5 6 7 8 8 9 9 10 10 10 10 11 11 12 11 12 12 12 11 12 12 13 13 14 14 15 16 16 17 17 17 17 17 17 16 15 13 12 13 14 16 17 18 16 15 16 18 19 19 19 19 20 20 20 21 21 19 18 18 20
2 2 2 3 3 4 4 5 5 6 7 8 8 9 9 9 9 10 10 11 11 11 10 11 11 12 12 12 12 12 12 13 14 14 15 15 16 16 17 17 17 17 17 16 14 13 13 14 16 17 18 18 16 16 16 18 19 19 20 21 21 21 21 21 21 20 20 20 20
3 3 4 4 4 5 5 5 6 6 7 9 9 8 8 9 9 9 10 10 11 11 10 11 11 11 11 12 12 13 14 14 15 16 16 16 16 16 17 16 17 16 16 14 14 15 15 16 17 18 18 19 19 18 18 19 19 19 20 21 21 22 22 21 21 21 21 21 21
5 5 5 5 5 5 6 6 6 7 7 8 8 8 8 8 8 8 9 10 10 11 10 10 10 11 12 13 14 14 15 15 16 16 17 17 17 17 17 16 17 16 16 15 15 15 16 17 18 18 18 19 19 20 20 19 20 20 20 21 21 22 22 21 21 20 20 21 21
6 7 7 7 7 7 7 7 6 6 7 8 8 8 8 8 8 8 9 10 10 10 10 11 11 11 12 13 14 14 15 15 16 16 17 17 17 17 17 17 17 17 16 16 16 16 16 17 17 18 18 19 20 20 20 20 20 20 21 21 21 21 21 21 21 21 21 21 21
8 8 8 8 8 7 7 7 6 6 7 8 8 8 8 8 8 8 9 9 9 10 11 12 12 12 12 13 13 13 14 14 15 15 16 16 17 17 17 17 17 17 17 17 17 17 17 17 17 17 18 19 19 20 20 20 20 20 20 20 20 21 21 21 21 21 21 21 22
9 9 8 8 8 7 7 7 7 7 8 8 9 9 8 8 9 9 9 10 11 11 12 13 13 13 13 14 13 13 13 14 15 15 16 16 17 17 17 17 17 17 17 17 17 18 18 18 18 18 18 18 19 19 19 19 19 19 20 20 20 20 20 21 21 20 20 21 21
9 9 8 8 7 7 7 7 7 8 8 9 9 9 9 9 10 10 11 11 12 13 13 14 14 14 14 15 15 14 13 14 15 16 17 17 17 17 17 18 17 17 17 17 18 18 18 18 18 18 18 18 18 18 18 18 18 19 19 20 20 20 20 20 21 20 20 21 21
9 8 8 7 7 6 7 7 7 8 8 8 9 10 10 11 11 11 12 12 12 13 14 14 14 14 15 15 16 15 14 13 15 16 17 17 17 17 18 18 18 18 18 18 18 18 18 18 18 18 18 18 18 18 19 19 19 19 19 18 19 19 20 20 20 21 21 21 21
9 8 7 6 6 6 7 7 8 8 9 9 10 10 11 11 11 12 13 13 13 14 14 15 15 15 16 16 16 16 15 13 14 15 16 16 17 17 17 17 18 18 17 17 17 17 18 17 17 17 17 18 18 18 18 18 18 19 19 18 18 19 20 20 20 21 21 21 21
8 7 6 6 6 6 7 7 8 9 9 10 10 11 11 11 12 12 13 13 14 14 15 15 16 16 16 16 16 16 15 14 15 15 16 16 16 16 16 16 17 17 18 18 17 17 17 17 17 17 17 17 17 17 18 17 17 18 18 19 19 19 20 20 20 20 21 21 21
7 6 6 5 6 6 7 8 8 9 10 10 10 11 11 11 12 12 13 13 13 14 15 15 15 15 16 16 16 16 16 16 16 16 16 16 16 16 16 16 17 18 18 17 16 15 15 15 15 15 15 15 16 17 17 17 17 17 18 19 20 20 20 20 20 20 20 21 21
6 6 5 5 6 7 8 8 9 10 10 11 11 11 11 11 12 12 13 13 14 14 14 13 14 15 16 16 16 17 17 17 17 17 17 17 16 17 17 16 16 16 16 14 13 13 13 12 12 13 14 14 15 15 16 16 16 17 17 18 19 19 19 19 20 20 20 21 20
6 6 6 6 7 7 8 9 9 10 11 11 11 12 12 12 12 12 12 13 14 14 15 15 15 15 15 15 16 16 16 17 17 17 17 17 17 17 16 15 15 14 13 12 14 15 16 14 13 13 13 13 14 15 15 16 17 17 17 18 18 19 19 19 20 20 20 21 20
6 6 6 6 7 8 9 9 10 11 11 12 12 12 12 12 12 12 13 14 14 15 15 15 15 14 14 14 15 15 16 15 15 16 16 17 17 17 16 15 14 12 12 12 15 16 18 19 18 17 15 14 14 15 15 15 16 17 18 19 19 19 19 19 20 20 20 20 20
6 6 6 7 8 8 9 10 10 11 12 12 13 13 13 13 13 13 14 15 15 15 15 14 14 14 13 13 14 15 15 14 15 16 17 17 18 18 18 16 14 12 11 14 16 18 19 20 21 21 19 16 15 15 15 14 16 17 18 19 19 19 20 20 20 20 20 19 20
6 6 7 7 8 9 10 10 11 11 12 13 13 13 14 14 15 15 15 15 15 15 14 13 13 12 11 11 13 14 15 15 15 16 16 17 18 18 18 16 14 13 14 16 18 20 21 22 22 23 22 19 17 15 15 16 16 16 17 17 18 19 20 20 19 19 19 19 19
6 7 7 8 9 9 10 11 11 12 13 13 13 14 14 15 15 16 16 16 16 15 14 12 11 10 11 12 13 15 16 16 16 15 15 16 17 18 17 16 15 15 17 19 21 21 22 23 23 24 24 23 17 14 13 14 14 14 15 15 15 16 17 17 17 16 17 18 18
7 7 7 8 9 9 10 11 11 12 13 12 13 14 15 15 16 16 16 17 16 16 14 13 12 12 13 15 15 15 15 16 15 15 16 17 18 17 17 16 16 16 17 20 21 22 23 23 24 24 24 24 20 16 14 13 14 14 14 14 16 17 18 18 19 19 18 17 17
7 7 7 8 9 10 10 11 12 12 13 13 14 15 15 15 16 16 16 16 16 16 15 15 16 16 16 16 16 16 16 16 16 16 16 17 17 17 17 17 17 17 18 21 22 23 24 24 24 24 25 25 21 17 14 14 15 15 15 15 17 19 19 19 19 19 20 20 19
7 7 8 8 9 10 11 12 12 13 13 14 15 15 16 16 16 16 16 16 16 16 17 17 17 17 17 17 17 17 17 17 17 16 16 17 17 17 17 17 17 18 19 21 23 23 24 24 24 25 25 25 21 18 16 16 16 16 17 18 20 21 21 19 19 20 21 22 20
7 7 8 9 10 10 11 12 12 13 14 14 15 15 16 16 16 16 16 16 15 16 16 16 16 17 17 17 17 17 17 17 17 17 17 17 17 17 17 17 16 17 18 21 22 23 24 24 25 25 26 26 21 19 17 17 16 15 16 17 19 21 22 23 21 21 21 22 21
7 7 8 9 10 11 11 12 12 13 14 14 15 15 16 16 16 16 16 15 14 14 15 15 15 16 16 16 16 17 16 15 16 16 17 17 17 17 17 16 14 15 18 22 23 24 25 25 25 26 26 26 20 17 16 18 16 16 17 18 19 20 21 22 22 22 22 23 21
6 7 8 9 10 11 12 12 13 13 14 15 15 15 16 16 17 16 16 15 15 15 15 15 15 15 15 15 16 16 16 16 16 16 16 16 17 17 18 18 17 18 21 23 24 25 25 25 26 26 26 23 18 15 15 17 17 17 18 19 20 21 21 22 22 22 22 22 22
6 6 7 8 10 11 12 13 13 14 15 15 15 15 16 16 16 16 15 15 15 15 15 15 15 15 16 16 15 15 16 16 17 16 16 16 17 18 19 19 19 21 22 24 24 25 25 25 26 26 25 21 15 14 14 14 14 16 18 19 19 20 21 21 21 21 21 20 21
6 6 7 8 10 11 12 13 14 14 15 15 15 15 16 16 16 15 14 14 14 15 15 15 15 16 16 16 16 15 16 16 17 17 16 16 17 18 19 19 20 21 22 23 24 25 25 26 26 26 24 19 15 13 13 13 12 14 15 17 18 19 19 18 19 19 20 20 20
7 7 7 9 10 11 12 13 14 14 15 15 15 15 15 15 15 14 14 13 14 15 15 15 16 16 16 16 16 16 16 17 17 17 17 17 17 17 18 20 20 20 21 22 24 25 25 26 26 26 23 18 15 14 13 12 12 13 14 14 15 16 17 15 15 15 17 20 21
8 8 9 10 11 12 13 13 14 14 15 15 15 15 15 15 14 13 13 12 13 14 15 16 16 16 16 16 16 16 17 17 17 17 17 17 17 18 19 19 20 20 21 22 24 25 26 26 26 26 24 19 16 13 12 11 12 13 14 13 13 14 15 15 14 14 15 18 22
8 9 9 10 11 12 12 13 14 14 14 14 15 15 15 14 14 13 13 12 13 14 14 15 16 16 16 15 15 16 17 17 17 17 17 17 18 19 19 19 20 20 21 22 24 25 25 25 26 26 24 19 15 13 11 11 12 13 13 13 12 13 13 13 13 13 14 16 20
8 8 9 10 11 11 12 13 14 14 14 14 14 14 14 13 13 13 13 13 13 14 13 13 15 16 16 15 15 15 17 18 18 18 18 18 18 18 18 18 19 20 20 21 22 24 25 25 25 25 24 19 15 13 11 11 12 13 14 14 13 12 12 12 12 12 13 14 15
Wind_Direction
158 159 161 161 164 169 172 160 169 195 218 225 251 284 306 313 309 305 300 295 290 289 290 290 291 292 294 295 296 296 296 295 293 290 288 286 285 285 286 285 284 283 282 282 281 280 279 277 276 274 272 270 269 267 266 264 265 265 265 264 264 264 264 263 262 260 260 259 260
161 158 156 158 168 174 175 170 178 189 200 199 253 324 327 321 312 304 297 292 290 290 290 289 289 291 292 294 296 296 295 293 292 290 288 285 284 283 282 281 279 279 278 278 278 278 277 276 276 275 274 272 270 269 267 263 261 261 261 260 261 261 261 261 260 259 259 259 258
160 159 161 167 175 178 180 183 186 187 181 123 28 345 326 311 301 295 291 289 289 289 288 288 290 291 293 295 295 294 293 291 290 288 287 285 283 282 280 279 278 277 276 274 274 273 273 274 274 273 272 271 270 269 268 266 263 262 261 260 259 259 258 258 258 258 258 257 256
160 163 167 172 174 173 171 170 159 101 51 34 2 331 305 293 287 284 283 285 286 285 286 288 291 292 292 292 290 289 288 287 286 285 284 283 282 281 280 280 279 277 276 274 273 272 272 272 272 271 270 269 269 268 267 266 265 264 263 262 261 260 259 258 257 257 256 256 255
159 161 162 161 159 153 143 129 91 56 34 16 333 305 289 279 276 277 279 282 284 286 288 292 293 292 289 286 285 285 285 284 284 283 283 282 281 280 279 278 277 276 276 275 273 272 272 272 271 269 268 268 266 265 265 265 265 264 264 263 262 261 261 260 259 257 256 256 254
155 151 147 144 143 137 119 91 64 43 19 338 297 288 284 282 283 285 287 289 290 291 292 293 291 287 284 282 282 283 283 284 283 282 282 281 280 279 277 276 275 274 273 272 271 270 269 268 267 265 264 264 263 262 263 263 264 263 263 262 262 261 261 261 260 259 257 256 255
149 148 146 144 136 118 92 72 52 20 324 288 283 284 287 290 292 293 293 294 293 292 291 290 285 282 280 281 281 282 283 283 282 282 281 279 277 275 274 273 272 270 269 268 268 267 265 263 262 261 260 260 261 261 260 260 261 262 262 262 262 262 263 263 263 262 261 259 258
143 141 137 128 112 93 71 50 6 316 293 283 284 286 289 291 292 292 292 290 289 288 288 286 284 283 283 282 282 282 282 282 281 280 278 276 275 274 272 271 269 268 266 266 265 264 263 261 260 259 259 258 259 259 259 259 260 262 263 264 264 264 264 263 263 262 261 260 259
140 132 121 107 94 79 55 356 305 290 284 282 283 284 286 288 288 287 286 285 285 286 286 284 283 283 282 281 280 280 279 278 277 276 275 273 273 272 271 270 269 268 267 265 265 264 263 261 259 258 258 258 259 260 261 262 262 263 263 264 265 265 264 264 262 261 260 259 259
133 121 108 95 86 73 309 282 278 278 279 279 280 281 282 281 279 278 277 278 280 280 279 279 279 280 279 278 278 276 275 273 272 271 270 269 268 267 267 267 267 267 267 266 266 266 265 264 262 261 260 260 261 262 263 263 262 262 262 262 263 264 264 264 264 263 262 261 259
120 109 99 89 104 259 266 270 271 273 275 276 277 277 276 274 273 273 274 277 276 275 275 276 276 276 276 275 274 273 271 270 269 268 267 267 267 267 267 267 267 268 268 268 268 268 267 266 264 264 263 263 264 264 264 263 262 261 260 260 261 261 262 262 262 263 263 262 261
121 120 142 213 239 252 261 267 270 271 272 272 273 273 274 274 276 277 278 279 277 277 277 278 278 277 277 275 273 272 270 269 269 269 269 269 270 270 270 270 270 270 270 270 270 269 267 265 265 265 265 265 265 265 265 264 263 262 261 260 260 259 259 259 259 260 261 261 262
155 196 224 230 237 246 255 261 264 266 268 270 272 274 276 278 280 282 282 281 280 280 281 281 280 279 277 275 274 273 272 272 272 272 272 272 272 272 272 272 271 271 271 270 269 267 266 265 265 265 266 266 265 264 265 265 265 264 264 263 262 261 260 259 259 259 259 260 261
207 225 231 232 235 241 248 253 257 262 268 273 277 280 281 282 282 282 282 281 282 283 283 283 281 278 277 276 276 276 276 275 275 274 273 273 272 272 272 271 271 271 270 269 267 266 265 265 265 266 266 267 266 266 265 265 265 265 265 265 264 264 263 262 262 261 260 260 260
221 225 227 229 232 237 243 249 256 264 272 278 282 284 285 284 282 281 281 281 282 283 283 282 281 280 279 279 278 278 277 276 275 274 273 273 272 272 271 271 271 271 270 269 268 266 266 266 266 267 267 268 267 267 266 265 265 265 265 265 265 265 265 265 264 263 262 261 261
222 223 224 227 231 236 243 251 261 271 278 282 286 286 284 283 282 281 280 280 281 281 281 281 281 282 281 279 278 277 276 275 275 274 274 274 274 273 273 273 273 272 272 271 270 269 267 267 267 267 267 268 268 267 267 266 265 265 265 265 265 266 266 266 265 264 263 262 262
222 224 226 230 236 242 250 259 268 277 282 285 286 285 283 282 282 281 280 279 280 280 280 280 281 281 281 280 279 278 277 276 275 275 275 276 276 276 276 276 275 275 274 274 273 272 270 269 268 268 268 268 268 268 268 268 268 268 267 267 267 267 267 267 266 265 264 263 262
222 225 229 233 241 249 258 266 273 279 282 285 285 283 282 282 282 282 281 279 279 279 280 280 280 279 279 280 279 278 277 277 277 277 277 277 278 278 278 277 277 277 276 275 274 273 272 272 271 270 270 269 270 270 271 271 271 270 270 270 269 269 269 268 267 267 266 265 263
226 229 234 239 248 256 265 272 277 280 282 283 282 281 281 280 280 280 280 280 279 280 281 281 280 280 279 279 279 278 277 277 278 278 278 278 278 278 278 278 278 278 277 276 275 274 274 274 274 273 273 273 273 273 272 272 271 271 270 269 269 268 268 267 267 267 266 266 265
231 236 242 249 258 266 272 276 279 280 281 281 280 280 279 280 279 279 280 280 281 282 282 282 282 281 281 281 280 280 279 277 278 278 279 279 279 279 279 279 279 278 277 276 275 275 275 276 276 277 277 276 275 274 273 272 270 269 268 267 266 265 265 264 264 264 264 264 264
236 242 250 258 265 271 275 278 280 281 281 280 280 279 279 279 279 279 280 282 283 284 284 283 284 284 284 284 283 282 281 279 280 280 280 280 280 279 279 279 279 278 277 276 276 276 277 278 279 279 278 277 275 273 272 271 270 268 267 266 264 263 263 262 262 261 261 261 262
240 247 256 263 268 273 277 280 280 281 281 281 280 279 279 279 279 280 281 282 284 284 285 286 286 286 286 286 285 285 284 283 282 281 281 280 279 279 279 278 278 278 277 276 277 278 279 279 279 278 277 275 273 272 271 270 269 269 268 267 265 264 263 262 261 260 259 259 259
244 251 260 266 271 275 278 280 282 283 283 282 282 281 281 281 281 281 282 283 284 285 287 287 287 287 287 287 287 286 285 283 282 280 279 278 278 278 277 277 277 277 277 277 278 279 280 280 280 278 277 275 274 273 272 271 270 270 269 268 267 266 265 263 262 261 260 259 258
247 255 263 269 274 278 281 283 285 286 286 287 286 286 285 284 284 284 285 285 286 287 287 287 287 287 287 287 286 285 283 282 281 280 279 278 277 278 278 277 277 278 278 279 280 281 282 282 282 280 278 277 275 274 273 272 271 270 269 269 268 268 266 265 264 262 261 260 259
250 258 265 270 275 279 283 286 288 289 290 291 291 291 290 289 289 288 288 288 288 288 288 288 287 287 286 285 284 283 281 280 280 280 280 280 279 279 279 279 279 279 279 280 280 280 280 279 278 278 277 276 275 274 272 271 270 269 269 269 269 268 268 266 264 263 262 261 259
252 260 267 272 276 281 284 287 290 292 293 294 295 295 294 295 294 293 293 292 291 291 291 290 288 286 284 282 281 281 280 280 280 280 281 282 282 281 281 280 279 279 279 279 280 279 278 276 274 273 272 273 272 272 271 270 269 268 268 268 267 267 266 265 264 262 261 261 259
258 265 272 276 280 283 286 290 292 294 296 297 298 298 299 300 299 297 296 295 294 293 292 290 288 285 282 280 280 280 281 282 282 282 283 283 282 282 281 280 280 280 280 280 280 279 278 276 274 272 270 270 270 269 269 269 269 268 267 267 266 265 264 264 264 263 262 261 260
261 269 275 279 282 285 288 292 294 297 299 301 301 302 301 301 300 299 298 296 295 294 292 289 287 285 283 281 282 283 284 285 284 283 282 282 282 282 282 282 283 282 282 283 282 281 279 277 275 274 272 270 270 269 268 268 268 268 267 266 265 264 263 262 262 262 261 261 260
263 270 275 280 284 287 291 294 297 300 302 303 303 302 302 301 300 299 298 297 296 294 292 291 290 288 287 286 287 288 287 286 284 283 282 282 282 282 283 284 285 285 285 285 284 282 280 279 277 275 274 272 270 268 267 266 266 266 265 264 263 263 262 262 262 261 261 260 259
268 271 276 280 285 289 292 296 299 302 304 303 303 302 301 300 299 298 297 297 296 295 294 293 292 291 289 288 288 288 287 286 285 284 284 284 284 285 286 287 288 288 287 286 285 283 281 280 279 277 275 273 271 269 267 265 265 264 264 264 263 263 263 263 263 262 261 260 259
269 273 277 282 287 291 295 298 301 303 303 303 302 302 301 300 299 298 297 297 296 296 295 294 292 291 290 289 289 288 288 289 288 288 287 287 288 289 290 291 290 289 287 286 284 283 282 281 279 278 276 275 273 270 267 265 264 263 263 263 263 263 264 264 263 261 260 260 259
272 277 282 287 291 295 299 302 303 303 303 302 302 301 300 299 298 298 298 297 297 296 295 294 293 293 292 292 291 291 291 291 291 290 290 290 291 292 292 291 289 287 285 285 284 283 282 281 280 279 278 276 274 271 268 266 265 263 262 262 262 262 262 262 262 261 260 259 258
278 283 288 291 296 299 302 304 303 303 302 301 300 299 299 299 299 298 298 297 296 295 295 295 295 295 294 294 294 293 292 292 291 291 291 292 293 293 292 290 287 285 284 284 284 283 283 282 281 280 279 278 276 273 269 267 265 263 261 261 261 260 260 260 259 259 259 258 257
277 284 290 296 300 303 304 303 302 301 300 298 298 298 299 299 299 298 297 296 295 295 295 295 295 295 294 294 293 293 293 292 292 292 293 294 294 293 291 289 286 285 284 284 284 284 284 284 283 283 282 281 279 275 271 268 266 263 261 260 260 259 259 258 258 258 257 256 255
278 287 296 301 302 303 302 301 300 299 299 298 299 299 299 298 297 297 297 297 297 297 296 295 295 294 294 293 293 292 292 292 292 293 294 295 294 292 290 287 286 285 285 285 286 286 286 286 286 285 285 284 281 276 272 270 267 264 262 261 260 259 258 257 257 257 256 255 254
290 297 301 300 299 298 299 299 299 299 299 299 299 298 297 297 297 297 298 299 299 298 297 297 296 295 295 294 294 293 293 294 295 295 295 295 293 290 289 287 287 287 287 288 288 288 288 288 287 287 286 285 281 277 273 271 268 265 264 262 261 259 258 257 256 255 254 254 252
297 299 298 293 294 296 297 299 299 300 300 299 298 297 297 297 298 299 300 301 300 299 298 298 297 297 296 297 296 296 296 296 297 296 295 293 291 289 288 288 288 289 290 290 290 290 289 288 288 287 287 286 282 279 276 272 270 267 265 264 263 261 260 258 257 255 253 252 250
301 300 297 293 294 296 298 299 300 299 299 299 298 298 299 300 300 301 302 302 301 300 299 298 297 297 297 298 298 297 297 297 296 294 293 291 290 289 289 289 290 290 290 291 290 290 289 288 288 288 287 286 284 281 278 274 271 269 267 265 265 263 261 259 257 255 253 250 248
305 303 300 298 298 298 299 299 299 299 298 299 299 300 300 301 301 302 302 302 300 299 298 297 297 298 298 300 299 298 297 295 294 292 291 290 290 289 289 289 290 290 290 290 289 288 288 287 287 287 287 286 285 282 279 275 272 270 269 267 266 265 263 260 258 256 253 251 249
306 303 301 299 298 298 298 298 299 299 299 299 299 300 300 301 300 301 301 299 298 298 297 296 297 298 299 300 299 297 296 295 294 293 292 291 291 290 289 288 288 288 289 288 288 287 287 286 287 288 288 287 285 283 279 277 274 273 271 269 268 266 264 262 259 257 255 253 250
302 300 298 298 297 297 298 298 299 299 299 299 299 299 300 301 300 300 300 299 299 299 298 297 298 299 300 300 298 297 296 295 294 294 294 293 292 291 289 288 287 288 288 288 287 286 286 286 287 288 288 287 286 284 282 279 278 277 275 274 272 270 268 266 263 260 257 255 253